Time,TemperatureF,DewpointF,PressureIn,WindDirection,WindDirectionDegrees,WindSpeedMPH,WindSpeedGustMPH,Humidity,HourlyPrecipIn,Conditions,Clouds,dailyrainin,SoftwareType,DateUTC
2013-02-15 00:04:00,37.8,34.3,30.53,NW,306,0.0,5.0,87,0.00,,,0.00,Weather View 32 v70,2013-02-15 08:04:00,
2013-02-15 00:09:00,37.6,34.1,30.53,NW,306,0.0,5.0,87,0.00,,,0.00,Weather View 32 v70,2013-02-15 08:09:00,
2013-02-15 00:14:00,37.5,34.3,30.53,NW,306,0.0,0.0,88,0.00,,,0.00,Weather View 32 v70,2013-02-15 08:14:00,
2013-02-15 00:19:00,37.2,34.0,30.53,NW,306,0.0,0.0,88,0.00,,,0.00,Weather View 32 v70,2013-02-15 08:19:00,
2013-02-15 00:24:00,36.9,33.4,30.53,NW,306,0.0,0.0,87,0.00,,,0.00,Weather View 32 v70,2013-02-15 08:24:00,
2013-02-15 00:29:00,36.9,33.7,30.53,NW,306,0.0,0.0,88,0.00,,,0.00,Weather View 32 v70,2013-02-15 08:29:00,
2013-02-15 00:34:00,36.9,33.7,30.53,NW,306,0.0,0.0,88,0.00,,,0.00,Weather View 32 v70,2013-02-15 08:34:00,
2013-02-15 00:39:00,36.8,33.6,30.53,NW,306,0.0,0.0,88,0.00,,,0.00,Weather View 32 v70,2013-02-15 08:39:00,
2013-02-15 00:44:00,36.6,33.4,30.53,NW,306,0.0,0.0,88,0.00,,,0.00,Weather View 32 v70,2013-02-15 08:44:00,
2013-02-15 00:49:00,36.5,33.3,30.53,NW,306,0.0,0.0,88,0.00,,,0.00,Weather View 32 v70,2013-02-15 08:49:00,
2013-02-15 00:54:00,36.5,33.6,30.53,NW,306,0.0,0.0,89,0.00,,,0.00,Weather View 32 v70,2013-02-15 08:54:00,
2013-02-15 00:59:00,36.6,33.7,30.53,NW,306,0.0,0.0,89,0.00,,,0.00,Weather View 32 v70,2013-02-15 08:59:00,
2013-02-15 01:04:00,36.5,33.6,30.53,NW,306,0.0,0.0,89,0.00,,,0.00,Weather View 32 v70,2013-02-15 09:04:00,
2013-02-15 01:09:00,36.6,33.9,30.53,NW,306,0.0,0.0,90,0.00,,,0.00,Weather View 32 v70,2013-02-15 09:09:00,
2013-02-15 01:14:00,37.0,34.3,30.53,NW,306,0.0,0.0,90,0.00,,,0.00,Weather View 32 v70,2013-02-15 09:14:00,
2013-02-15 01:19:00,37.3,34.6,30.53,NW,306,0.0,0.0,90,0.00,,,0.00,Weather View 32 v70,2013-02-15 09:19:00,
2013-02-15 01:24:00,37.5,34.8,30.53,NW,306,0.0,0.0,90,0.00,,,0.00,Weather View 32 v70,2013-02-15 09:24:00,
2013-02-15 01:29:00,37.5,34.6,30.53,NW,306,0.0,0.0,89,0.00,,,0.00,Weather View 32 v70,2013-02-15 09:29:00,
2013-02-15 01:34:00,37.3,34.4,30.53,NW,306,0.0,0.0,89,0.00,,,0.00,Weather View 32 v70,2013-02-15 09:34:00,
2013-02-15 01:39:00,37.2,34.3,30.53,NW,306,0.0,0.0,89,0.00,,,0.00,Weather View 32 v70,2013-02-15 09:39:00,
2013-02-15 01:44:00,37.2,34.3,30.53,NW,306,0.0,0.0,89,0.00,,,0.00,Weather View 32 v70,2013-02-15 09:44:00,
2013-02-15 01:49:00,37.0,34.1,30.53,NW,306,0.0,0.0,89,0.00,,,0.00,Weather View 32 v70,2013-02-15 09:49:00,
2013-02-15 01:54:00,36.9,34.0,30.53,NW,306,0.0,0.0,89,0.00,,,0.00,Weather View 32 v70,2013-02-15 09:54:00,
2013-02-15 01:59:00,36.9,34.0,30.53,NW,306,0.0,0.0,89,0.00,,,0.00,Weather View 32 v70,2013-02-15 09:59:00,
2013-02-15 02:04:00,36.8,33.9,30.53,NW,306,0.0,0.0,89,0.00,,,0.00,Weather View 32 v70,2013-02-15 10:04:00,
2013-02-15 02:09:00,36.6,33.7,30.53,NW,306,0.0,0.0,89,0.00,,,0.00,Weather View 32 v70,2013-02-15 10:09:00,
2013-02-15 02:14:00,36.5,33.6,30.53,NW,306,0.0,0.0,89,0.00,,,0.00,Weather View 32 v70,2013-02-15 10:14:00,
2013-02-15 02:19:00,36.0,33.1,30.53,NW,306,0.0,0.0,89,0.00,,,0.00,Weather View 32 v70,2013-02-15 10:19:00,
2013-02-15 02:24:00,35.6,32.4,30.53,NW,306,0.0,0.0,88,0.00,,,0.00,Weather View 32 v70,2013-02-15 10:24:00,
2013-02-15 02:29:00,35.2,32.0,30.53,NW,306,0.0,0.0,88,0.00,,,0.00,Weather View 32 v70,2013-02-15 10:29:00,
2013-02-15 02:34:00,34.9,32.0,30.53,NW,306,0.0,0.0,89,0.00,,,0.00,Weather View 32 v70,2013-02-15 10:34:00,
2013-02-15 02:39:00,34.6,31.7,30.53,NW,306,0.0,0.0,89,0.00,,,0.00,Weather View 32 v70,2013-02-15 10:39:00,
2013-02-15 02:44:00,34.7,32.1,30.53,NW,306,0.0,0.0,90,0.00,,,0.00,Weather View 32 v70,2013-02-15 10:44:00,
2013-02-15 02:49:00,34.7,32.1,30.52,NW,306,0.0,0.0,90,0.00,,,0.00,Weather View 32 v70,2013-02-15 10:49:00,
2013-02-15 02:54:00,34.9,32.3,30.52,NW,306,0.0,0.0,90,0.00,,,0.00,Weather View 32 v70,2013-02-15 10:54:00,
2013-02-15 02:59:00,34.7,32.1,30.52,NW,306,0.0,0.0,90,0.00,,,0.00,Weather View 32 v70,2013-02-15 10:59:00,
2013-02-15 03:04:00,34.4,31.8,30.52,NW,306,0.0,0.0,90,0.00,,,0.00,Weather View 32 v70,2013-02-15 11:04:00,
2013-02-15 03:09:00,34.1,31.5,30.52,NW,306,0.0,0.0,90,0.00,,,0.00,Weather View 32 v70,2013-02-15 11:09:00,
2013-02-15 03:14:00,34.0,31.4,30.52,NW,306,0.0,0.0,90,0.00,,,0.00,Weather View 32 v70,2013-02-15 11:14:00,
2013-02-15 03:19:00,34.0,31.4,30.52,NW,306,0.0,0.0,90,0.00,,,0.00,Weather View 32 v70,2013-02-15 11:19:00,
2013-02-15 03:24:00,34.0,31.4,30.52,NW,306,0.0,0.0,90,0.00,,,0.00,Weather View 32 v70,2013-02-15 11:24:00,
2013-02-15 03:29:00,33.7,31.1,30.52,NW,306,0.0,0.0,90,0.00,,,0.00,Weather View 32 v70,2013-02-15 11:29:00,
2013-02-15 03:34:00,33.5,30.9,30.52,NW,306,0.0,0.0,90,0.00,,,0.00,Weather View 32 v70,2013-02-15 11:34:00,
2013-02-15 03:39:00,33.4,30.8,30.51,NW,306,0.0,0.0,90,0.00,,,0.00,Weather View 32 v70,2013-02-15 11:39:00,
2013-02-15 03:44:00,33.2,30.6,30.51,NW,306,0.0,0.0,90,0.00,,,0.00,Weather View 32 v70,2013-02-15 11:44:00,
2013-02-15 03:49:00,33.1,30.8,30.52,NW,306,0.0,0.0,91,0.00,,,0.00,Weather View 32 v70,2013-02-15 11:49:00,
2013-02-15 03:54:00,32.9,30.6,30.52,NW,306,0.0,0.0,91,0.00,,,0.00,Weather View 32 v70,2013-02-15 11:54:00,
2013-02-15 03:59:00,32.9,30.6,30.51,NW,306,0.0,0.0,91,0.00,,,0.00,Weather View 32 v70,2013-02-15 11:59:00,
2013-02-15 04:04:00,32.8,30.5,30.51,NW,306,0.0,0.0,91,0.00,,,0.00,Weather View 32 v70,2013-02-15 12:04:00,
2013-02-15 04:09:00,32.7,30.4,30.51,NW,306,0.0,0.0,91,0.00,,,0.00,Weather View 32 v70,2013-02-15 12:09:00,
2013-02-15 04:14:00,32.4,30.1,30.51,NW,306,0.0,0.0,91,0.00,,,0.00,Weather View 32 v70,2013-02-15 12:14:00,
2013-02-15 04:19:00,32.4,30.1,30.51,NW,306,0.0,0.0,91,0.00,,,0.00,Weather View 32 v70,2013-02-15 12:19:00,
2013-02-15 04:24:00,32.4,30.1,30.51,NW,306,0.0,0.0,91,0.00,,,0.00,Weather View 32 v70,2013-02-15 12:24:00,
2013-02-15 04:29:00,32.2,29.9,30.51,NW,306,0.0,0.0,91,0.00,,,0.00,Weather View 32 v70,2013-02-15 12:29:00,
2013-02-15 04:34:00,32.1,29.8,30.51,NW,306,0.0,0.0,91,0.00,,,0.00,Weather View 32 v70,2013-02-15 12:34:00,
2013-02-15 04:39:00,32.1,29.8,30.51,NW,306,0.0,0.0,91,0.00,,,0.00,Weather View 32 v70,2013-02-15 12:39:00,
2013-02-15 04:44:00,32.2,30.1,30.51,NW,306,0.0,0.0,92,0.00,,,0.00,Weather View 32 v70,2013-02-15 12:44:00,
2013-02-15 04:49:00,32.2,30.1,30.51,NW,306,0.0,0.0,92,0.00,,,0.00,Weather View 32 v70,2013-02-15 12:49:00,
2013-02-15 04:54:00,32.5,30.4,30.51,NW,306,0.0,0.0,92,0.00,,,0.00,Weather View 32 v70,2013-02-15 12:54:00,
2013-02-15 04:59:00,32.7,30.6,30.51,NW,306,0.0,0.0,92,0.00,,,0.00,Weather View 32 v70,2013-02-15 12:59:00,
2013-02-15 05:04:00,32.9,30.8,30.51,NW,306,0.0,0.0,92,0.00,,,0.00,Weather View 32 v70,2013-02-15 13:04:00,
2013-02-15 05:09:00,32.9,30.8,30.51,NW,306,0.0,0.0,92,0.00,,,0.00,Weather View 32 v70,2013-02-15 13:09:00,
2013-02-15 05:14:00,32.9,30.8,30.51,NW,306,0.0,0.0,92,0.00,,,0.00,Weather View 32 v70,2013-02-15 13:14:00,
2013-02-15 05:19:00,32.8,30.7,30.51,NW,306,0.0,0.0,92,0.00,,,0.00,Weather View 32 v70,2013-02-15 13:19:00,
2013-02-15 05:24:00,32.7,30.6,30.51,NW,306,0.0,0.0,92,0.00,,,0.00,Weather View 32 v70,2013-02-15 13:24:00,
2013-02-15 05:29:00,32.5,30.4,30.51,NW,306,0.0,0.0,92,0.00,,,0.00,Weather View 32 v70,2013-02-15 13:29:00,
2013-02-15 05:34:00,32.4,30.3,30.50,NW,306,0.0,0.0,92,0.00,,,0.00,Weather View 32 v70,2013-02-15 13:34:00,
2013-02-15 05:39:00,32.2,30.1,30.50,NW,306,0.0,0.0,92,0.00,,,0.00,Weather View 32 v70,2013-02-15 13:39:00,
2013-02-15 05:44:00,32.1,30.0,30.50,NW,306,0.0,0.0,92,0.00,,,0.00,Weather View 32 v70,2013-02-15 13:44:00,
2013-02-15 05:49:00,31.8,29.5,30.51,NW,306,0.0,0.0,91,0.00,,,0.00,Weather View 32 v70,2013-02-15 13:49:00,
2013-02-15 05:54:00,31.5,29.2,30.50,NW,306,0.0,0.0,91,0.00,,,0.00,Weather View 32 v70,2013-02-15 13:54:00,
2013-02-15 05:59:00,31.3,29.2,30.50,NW,306,0.0,0.0,92,0.00,,,0.00,Weather View 32 v70,2013-02-15 13:59:00,
2013-02-15 06:04:00,31.3,29.2,30.51,NW,306,0.0,0.0,92,0.00,,,0.00,Weather View 32 v70,2013-02-15 14:04:00,
2013-02-15 06:09:00,31.5,29.4,30.50,NW,306,0.0,0.0,92,0.00,,,0.00,Weather View 32 v70,2013-02-15 14:09:00,
2013-02-15 06:14:00,31.6,29.5,30.50,NW,306,0.0,0.0,92,0.00,,,0.00,Weather View 32 v70,2013-02-15 14:14:00,
2013-02-15 06:19:00,31.8,29.7,30.50,NW,306,0.0,0.0,92,0.00,,,0.00,Weather View 32 v70,2013-02-15 14:19:00,
2013-02-15 06:24:00,31.6,29.5,30.50,NW,306,0.0,0.0,92,0.00,,,0.00,Weather View 32 v70,2013-02-15 14:24:00,
2013-02-15 06:29:00,31.8,29.7,30.50,NW,306,0.0,0.0,92,0.00,,,0.00,Weather View 32 v70,2013-02-15 14:29:00,
2013-02-15 06:34:00,31.9,29.8,30.50,NW,306,0.0,0.0,92,0.00,,,0.00,Weather View 32 v70,2013-02-15 14:34:00,
2013-02-15 06:39:00,31.9,29.8,30.50,NW,306,0.0,0.0,92,0.00,,,0.00,Weather View 32 v70,2013-02-15 14:39:00,
2013-02-15 06:44:00,32.2,30.1,30.50,NW,306,0.0,0.0,92,0.00,,,0.00,Weather View 32 v70,2013-02-15 14:44:00,
2013-02-15 06:49:00,32.4,30.3,30.50,NW,306,0.0,0.0,92,0.00,,,0.00,Weather View 32 v70,2013-02-15 14:49:00,
2013-02-15 06:54:00,32.8,31.0,30.50,NW,306,0.0,0.0,93,0.00,,,0.00,Weather View 32 v70,2013-02-15 14:54:00,
2013-02-15 06:59:00,33.1,31.3,30.50,NW,306,0.0,0.0,93,0.00,,,0.00,Weather View 32 v70,2013-02-15 14:59:00,
2013-02-15 07:04:00,33.2,31.4,30.50,NW,306,0.0,0.0,93,0.00,,,0.00,Weather View 32 v70,2013-02-15 15:04:00,
2013-02-15 07:09:00,33.2,31.1,30.50,NW,306,0.0,0.0,92,0.00,,,0.00,Weather View 32 v70,2013-02-15 15:09:00,
2013-02-15 07:14:00,33.2,31.1,30.50,NW,306,0.0,0.0,92,0.00,,,0.00,Weather View 32 v70,2013-02-15 15:14:00,
2013-02-15 07:19:00,33.1,31.0,30.51,NW,306,0.0,0.0,92,0.00,,,0.00,Weather View 32 v70,2013-02-15 15:19:00,
2013-02-15 07:24:00,32.9,30.8,30.51,NW,306,0.0,0.0,92,0.00,,,0.00,Weather View 32 v70,2013-02-15 15:24:00,
2013-02-15 07:29:00,32.8,30.7,30.51,NW,306,0.0,0.0,92,0.00,,,0.00,Weather View 32 v70,2013-02-15 15:29:00,
2013-02-15 07:34:00,32.7,30.6,30.51,NW,306,0.0,0.0,92,0.00,,,0.00,Weather View 32 v70,2013-02-15 15:34:00,
2013-02-15 07:39:00,32.8,31.0,30.51,NW,306,0.0,0.0,93,0.00,,,0.00,Weather View 32 v70,2013-02-15 15:39:00,
2013-02-15 07:44:00,32.8,31.0,30.51,NW,306,0.0,0.0,93,0.00,,,0.00,Weather View 32 v70,2013-02-15 15:44:00,
2013-02-15 07:49:00,33.1,31.3,30.51,NW,306,0.0,0.0,93,0.00,,,0.00,Weather View 32 v70,2013-02-15 15:49:00,
2013-02-15 07:54:00,33.4,31.6,30.51,NW,306,0.0,0.0,93,0.00,,,0.00,Weather View 32 v70,2013-02-15 15:54:00,
2013-02-15 07:59:00,33.7,31.9,30.51,NW,306,0.0,0.0,93,0.00,,,0.00,Weather View 32 v70,2013-02-15 15:59:00,
2013-02-15 08:04:00,33.8,32.0,30.52,NW,306,0.0,0.0,93,0.00,,,0.00,Weather View 32 v70,2013-02-15 16:04:00,
2013-02-15 08:09:00,34.0,32.2,30.52,NW,306,0.0,0.0,93,0.00,,,0.00,Weather View 32 v70,2013-02-15 16:09:00,
2013-02-15 08:14:00,34.1,32.3,30.52,NW,306,0.0,0.0,93,0.00,,,0.00,Weather View 32 v70,2013-02-15 16:14:00,
2013-02-15 08:19:00,34.3,32.5,30.52,NW,306,0.0,0.0,93,0.00,,,0.00,Weather View 32 v70,2013-02-15 16:19:00,
2013-02-15 08:24:00,34.3,32.5,30.52,NW,306,0.0,0.0,93,0.00,,,0.00,Weather View 32 v70,2013-02-15 16:24:00,
2013-02-15 08:29:00,34.4,32.6,30.52,NW,306,0.0,0.0,93,0.00,,,0.00,Weather View 32 v70,2013-02-15 16:29:00,
2013-02-15 08:34:00,34.4,32.6,30.52,NW,306,0.0,0.0,93,0.00,,,0.00,Weather View 32 v70,2013-02-15 16:34:00,
2013-02-15 08:39:00,34.7,32.9,30.52,NW,306,0.0,0.0,93,0.00,,,0.00,Weather View 32 v70,2013-02-15 16:39:00,
2013-02-15 08:44:00,34.9,33.1,30.52,NW,306,0.0,0.0,93,0.00,,,0.00,Weather View 32 v70,2013-02-15 16:44:00,
2013-02-15 08:49:00,34.9,33.1,30.52,NW,306,0.0,0.0,93,0.00,,,0.00,Weather View 32 v70,2013-02-15 16:49:00,
2013-02-15 08:54:00,34.9,33.1,30.52,NW,306,0.0,0.0,93,0.00,,,0.00,Weather View 32 v70,2013-02-15 16:54:00,
2013-02-15 08:59:00,35.0,33.2,30.52,NW,306,0.0,0.0,93,0.00,,,0.00,Weather View 32 v70,2013-02-15 16:59:00,
2013-02-15 09:04:00,35.2,33.4,30.52,NW,306,0.0,0.0,93,0.00,,,0.00,Weather View 32 v70,2013-02-15 17:04:00,
2013-02-15 09:09:00,35.3,33.5,30.52,NW,306,0.0,0.0,93,0.00,,,0.00,Weather View 32 v70,2013-02-15 17:09:00,
2013-02-15 09:14:00,35.6,33.8,30.52,NW,306,0.0,0.0,93,0.00,,,0.00,Weather View 32 v70,2013-02-15 17:14:00,
2013-02-15 09:19:00,36.0,34.2,30.52,NW,306,0.0,0.0,93,0.00,,,0.00,Weather View 32 v70,2013-02-15 17:19:00,
2013-02-15 09:24:00,36.6,34.8,30.52,NW,306,0.0,0.0,93,0.00,,,0.00,Weather View 32 v70,2013-02-15 17:24:00,
2013-02-15 09:29:00,37.2,35.4,30.52,NW,306,0.0,0.0,93,0.00,,,0.00,Weather View 32 v70,2013-02-15 17:29:00,
2013-02-15 09:34:00,37.8,36.0,30.52,NW,306,0.0,1.0,93,0.00,,,0.00,Weather View 32 v70,2013-02-15 17:34:00,
2013-02-15 09:39:00,38.2,36.4,30.52,NW,306,0.0,1.0,93,0.00,,,0.00,Weather View 32 v70,2013-02-15 17:39:00,
2013-02-15 09:44:00,38.2,36.1,30.52,NW,308,0.0,1.0,92,0.00,,,0.00,Weather View 32 v70,2013-02-15 17:44:00,
2013-02-15 09:49:00,38.5,36.1,30.52,North,5,0.0,1.0,91,0.00,,,0.00,Weather View 32 v70,2013-02-15 17:49:00,
2013-02-15 09:54:00,38.8,36.1,30.52,North,5,0.0,1.0,90,0.00,,,0.00,Weather View 32 v70,2013-02-15 17:54:00,
2013-02-15 09:59:00,39.1,35.8,30.51,NE,44,5.0,6.0,88,0.00,,,0.00,Weather View 32 v70,2013-02-15 17:59:00,
2013-02-15 10:04:00,39.1,35.6,30.51,NNE,31,0.0,6.0,87,0.00,,,0.00,Weather View 32 v70,2013-02-15 18:04:00,
2013-02-15 10:09:00,39.6,35.8,30.51,NNE,32,0.0,6.0,86,0.00,,,0.00,Weather View 32 v70,2013-02-15 18:09:00,
2013-02-15 10:14:00,40.1,35.9,30.51,NNE,32,0.0,6.0,85,0.00,,,0.00,Weather View 32 v70,2013-02-15 18:14:00,
2013-02-15 10:19:00,40.6,36.4,30.51,NNE,32,0.0,6.0,85,0.00,,,0.00,Weather View 32 v70,2013-02-15 18:19:00,
2013-02-15 10:24:00,40.9,36.1,30.51,NE,38,3.0,6.0,83,0.00,,,0.00,Weather View 32 v70,2013-02-15 18:24:00,
2013-02-15 10:29:00,41.3,36.5,30.50,NE,35,0.0,6.0,83,0.00,,,0.00,Weather View 32 v70,2013-02-15 18:29:00,
2013-02-15 10:34:00,41.9,36.5,30.50,NE,46,4.0,7.0,81,0.00,,,0.00,Weather View 32 v70,2013-02-15 18:34:00,
2013-02-15 10:39:00,42.2,36.8,30.50,NE,51,2.0,7.0,81,0.00,,,0.00,Weather View 32 v70,2013-02-15 18:39:00,
2013-02-15 10:44:00,42.3,36.6,30.50,NE,56,4.0,7.0,80,0.00,,,0.00,Weather View 32 v70,2013-02-15 18:44:00,
2013-02-15 10:49:00,42.5,36.8,30.50,ENE,67,4.0,7.0,80,0.00,,,0.00,Weather View 32 v70,2013-02-15 18:49:00,
2013-02-15 10:54:00,42.8,37.4,30.50,ENE,67,0.0,7.0,81,0.00,,,0.00,Weather View 32 v70,2013-02-15 18:54:00,
2013-02-15 10:59:00,43.3,37.5,30.49,ENE,67,0.0,7.0,80,0.00,,,0.00,Weather View 32 v70,2013-02-15 18:59:00,
2013-02-15 11:04:00,43.6,37.2,30.49,ENE,58,0.0,7.0,78,0.00,,,0.00,Weather View 32 v70,2013-02-15 19:04:00,
2013-02-15 11:09:00,44.2,37.8,30.49,ENE,58,0.0,7.0,78,0.00,,,0.00,Weather View 32 v70,2013-02-15 19:09:00,
2013-02-15 11:14:00,44.8,37.7,30.49,NE,34,0.0,7.0,76,0.00,,,0.00,Weather View 32 v70,2013-02-15 19:14:00,
2013-02-15 11:19:00,45.2,38.1,30.48,NNE,23,0.0,7.0,76,0.00,,,0.00,Weather View 32 v70,2013-02-15 19:19:00,
2013-02-15 11:24:00,45.7,38.2,30.48,NNE,20,0.0,7.0,75,0.00,,,0.00,Weather View 32 v70,2013-02-15 19:24:00,
2013-02-15 11:29:00,46.1,38.3,30.48,NNE,20,0.0,7.0,74,0.00,,,0.00,Weather View 32 v70,2013-02-15 19:29:00,
2013-02-15 11:34:00,46.4,38.2,30.48,NNE,20,0.0,7.0,73,0.00,,,0.00,Weather View 32 v70,2013-02-15 19:34:00,
2013-02-15 11:39:00,46.8,38.6,30.48,NNE,22,0.0,6.0,73,0.00,,,0.00,Weather View 32 v70,2013-02-15 19:39:00,
2013-02-15 11:44:00,47.9,38.9,30.47,ENE,59,0.0,8.0,71,0.00,,,0.00,Weather View 32 v70,2013-02-15 19:44:00,
2013-02-15 11:49:00,48.6,38.9,30.47,ENE,59,0.0,8.0,69,0.00,,,0.00,Weather View 32 v70,2013-02-15 19:49:00,
2013-02-15 11:54:00,49.2,39.4,30.46,NNE,33,0.0,8.0,69,0.00,,,0.00,Weather View 32 v70,2013-02-15 19:54:00,
2013-02-15 11:59:00,49.2,39.1,30.46,NNE,30,0.0,8.0,68,0.00,,,0.00,Weather View 32 v70,2013-02-15 19:59:00,
2013-02-15 12:04:00,49.6,39.8,30.46,NNE,28,0.0,8.0,69,0.00,,,0.00,Weather View 32 v70,2013-02-15 20:04:00,
2013-02-15 12:10:00,51.1,40.9,30.45,NNE,30,0.0,8.0,68,0.00,,,0.00,Weather View 32 v70,2013-02-15 20:10:00,
2013-02-15 12:15:00,52.0,40.2,30.45,NNE,32,0.0,8.0,64,0.00,,,0.00,Weather View 32 v70,2013-02-15 20:15:00,
2013-02-15 12:20:00,52.3,40.9,30.44,NNE,32,0.0,8.0,65,0.00,,,0.00,Weather View 32 v70,2013-02-15 20:20:00,
2013-02-15 12:25:00,53.3,41.0,30.44,NE,36,0.0,8.0,63,0.00,,,0.00,Weather View 32 v70,2013-02-15 20:25:00,
2013-02-15 12:30:00,53.6,40.5,30.43,NE,46,2.0,8.0,61,0.00,,,0.00,Weather View 32 v70,2013-02-15 20:30:00,
2013-02-15 12:35:00,53.6,40.5,30.43,East,79,3.0,8.0,61,0.00,,,0.00,Weather View 32 v70,2013-02-15 20:35:00,
2013-02-15 12:40:00,53.8,40.6,30.43,ENE,76,2.0,8.0,61,0.00,,,0.00,Weather View 32 v70,2013-02-15 20:40:00,
2013-02-15 12:45:00,53.9,40.3,30.43,ENE,69,0.0,8.0,60,0.00,,,0.00,Weather View 32 v70,2013-02-15 20:45:00,
2013-02-15 12:51:00,54.1,40.1,30.42,East,86,3.0,8.0,59,0.00,,,0.00,Weather View 32 v70,2013-02-15 20:51:00,
2013-02-15 12:56:00,54.2,40.2,30.42,ENE,72,0.0,8.0,59,0.00,,,0.00,Weather View 32 v70,2013-02-15 20:56:00,
2013-02-15 13:01:00,54.7,40.6,30.41,SE,138,6.0,8.0,59,0.00,,,0.00,Weather View 32 v70,2013-02-15 21:01:00,
2013-02-15 13:06:00,54.8,40.7,30.41,East,94,0.0,8.0,59,0.00,,,0.00,Weather View 32 v70,2013-02-15 21:06:00,
2013-02-15 13:11:00,55.3,40.7,30.41,ENE,71,0.0,8.0,58,0.00,,,0.00,Weather View 32 v70,2013-02-15 21:11:00,
2013-02-15 13:16:00,55.4,40.8,30.40,East,80,2.0,10.0,58,0.00,,,0.00,Weather View 32 v70,2013-02-15 21:16:00,
2013-02-15 13:21:00,55.0,40.5,30.40,ENE,67,1.0,10.0,58,0.00,,,0.00,Weather View 32 v70,2013-02-15 21:21:00,
2013-02-15 13:26:00,55.0,40.5,30.40,ENE,73,0.0,10.0,58,0.00,,,0.00,Weather View 32 v70,2013-02-15 21:26:00,
2013-02-15 13:31:00,55.3,40.7,30.39,ENE,78,0.0,10.0,58,0.00,,,0.00,Weather View 32 v70,2013-02-15 21:31:00,
2013-02-15 13:36:00,55.3,41.2,30.39,ENE,71,3.0,10.0,59,0.00,,,0.00,Weather View 32 v70,2013-02-15 21:36:00,
2013-02-15 13:41:00,55.4,41.3,30.39,ENE,71,0.0,10.0,59,0.00,,,0.00,Weather View 32 v70,2013-02-15 21:41:00,
2013-02-15 13:46:00,55.6,41.0,30.38,East,84,2.0,10.0,58,0.00,,,0.00,Weather View 32 v70,2013-02-15 21:46:00,
2013-02-15 13:51:00,55.6,41.0,30.38,ENE,67,2.0,10.0,58,0.00,,,0.00,Weather View 32 v70,2013-02-15 21:51:00,
2013-02-15 13:56:00,56.0,41.4,30.37,ENE,67,0.0,10.0,58,0.00,,,0.00,Weather View 32 v70,2013-02-15 21:56:00,
2013-02-15 14:01:00,55.7,40.7,30.37,ENE,71,0.0,10.0,57,0.00,,,0.00,Weather View 32 v70,2013-02-15 22:01:00,
2013-02-15 14:05:00,55.7,40.7,30.37,ENE,66,0.0,10.0,57,0.00,,,0.00,Weather View 32 v70,2013-02-15 22:05:00,
2013-02-15 14:10:00,55.9,41.3,30.37,ENE,63,0.0,10.0,58,0.00,,,0.00,Weather View 32 v70,2013-02-15 22:10:00,
2013-02-15 14:15:00,56.3,40.3,30.36,ENE,72,1.0,10.0,55,0.00,,,0.00,Weather View 32 v70,2013-02-15 22:15:00,
2013-02-15 14:20:00,56.5,40.5,30.36,ENE,76,1.0,7.0,55,0.00,,,0.00,Weather View 32 v70,2013-02-15 22:20:00,
2013-02-15 14:25:00,56.9,40.4,30.36,East,90,1.0,7.0,54,0.00,,,0.00,Weather View 32 v70,2013-02-15 22:25:00,
2013-02-15 14:30:00,56.9,40.4,30.36,SE,143,0.0,8.0,54,0.00,,,0.00,Weather View 32 v70,2013-02-15 22:30:00,
2013-02-15 14:35:00,56.9,40.4,30.35,East,97,0.0,8.0,54,0.00,,,0.00,Weather View 32 v70,2013-02-15 22:35:00,
2013-02-15 14:40:00,56.7,40.2,30.35,ENE,78,0.0,8.0,54,0.00,,,0.00,Weather View 32 v70,2013-02-15 22:40:00,
2013-02-15 14:45:00,56.9,40.9,30.35,ENE,67,0.0,8.0,55,0.00,,,0.00,Weather View 32 v70,2013-02-15 22:45:00,
2013-02-15 14:50:00,57.3,40.8,30.35,ENE,66,0.0,9.0,54,0.00,,,0.00,Weather View 32 v70,2013-02-15 22:50:00,
2013-02-15 14:55:00,57.3,40.8,30.34,East,82,1.0,9.0,54,0.00,,,0.00,Weather View 32 v70,2013-02-15 22:55:00,
2013-02-15 15:00:00,57.3,40.3,30.34,East,96,0.0,9.0,53,0.00,,,0.00,Weather View 32 v70,2013-02-15 23:00:00,
2013-02-15 15:05:00,57.3,40.3,30.34,East,88,3.0,9.0,53,0.00,,,0.00,Weather View 32 v70,2013-02-15 23:05:00,
2013-02-15 15:10:00,57.3,40.8,30.34,ESE,106,1.0,9.0,54,0.00,,,0.00,Weather View 32 v70,2013-02-15 23:10:00,
2013-02-15 15:15:00,57.2,39.7,30.33,ESE,119,5.0,9.0,52,0.00,,,0.00,Weather View 32 v70,2013-02-15 23:15:00,
2013-02-15 15:20:00,57.0,40.0,30.33,ESE,115,0.0,9.0,53,0.00,,,0.00,Weather View 32 v70,2013-02-15 23:20:00,
2013-02-15 15:25:00,57.0,40.5,30.33,SE,130,4.0,9.0,54,0.00,,,0.00,Weather View 32 v70,2013-02-15 23:25:00,
2013-02-15 15:30:00,57.0,40.0,30.33,SE,133,5.0,9.0,53,0.00,,,0.00,Weather View 32 v70,2013-02-15 23:30:00,
2013-02-15 15:35:00,56.9,40.4,30.33,SE,130,0.0,9.0,54,0.00,,,0.00,Weather View 32 v70,2013-02-15 23:35:00,
2013-02-15 15:40:00,57.2,40.7,30.32,SE,124,0.0,9.0,54,0.00,,,0.00,Weather View 32 v70,2013-02-15 23:40:00,
2013-02-15 15:45:00,57.0,40.0,30.32,ESE,112,3.0,9.0,53,0.00,,,0.00,Weather View 32 v70,2013-02-15 23:45:00,
2013-02-15 15:50:00,56.7,40.2,30.32,SE,140,5.0,9.0,54,0.00,,,0.00,Weather View 32 v70,2013-02-15 23:50:00,
2013-02-15 15:55:00,56.7,40.2,30.32,SSE,149,3.0,9.0,54,0.00,,,0.00,Weather View 32 v70,2013-02-15 23:55:00,
2013-02-15 16:00:00,56.7,40.2,30.32,SE,136,4.0,9.0,54,0.00,,,0.00,Weather View 32 v70,2013-02-16 00:00:00,
2013-02-15 16:05:00,56.6,40.6,30.32,SE,130,0.0,9.0,55,0.00,,,0.00,Weather View 32 v70,2013-02-16 00:05:00,
2013-02-15 16:10:00,56.6,40.1,30.32,SE,128,0.0,9.0,54,0.00,,,0.00,Weather View 32 v70,2013-02-16 00:10:00,
2013-02-15 16:15:00,56.6,40.1,30.32,ESE,116,0.0,8.0,54,0.00,,,0.00,Weather View 32 v70,2013-02-16 00:15:00,
2013-02-15 16:20:00,56.6,40.1,30.31,East,101,0.0,8.0,54,0.00,,,0.00,Weather View 32 v70,2013-02-16 00:20:00,
2013-02-15 16:25:00,56.6,40.1,30.31,ESE,109,0.0,8.0,54,0.00,,,0.00,Weather View 32 v70,2013-02-16 00:25:00,
2013-02-15 16:30:00,56.5,40.0,30.31,SE,128,0.0,8.0,54,0.00,,,0.00,Weather View 32 v70,2013-02-16 00:30:00,
2013-02-15 16:35:00,56.2,40.2,30.31,SE,128,2.0,8.0,55,0.00,,,0.00,Weather View 32 v70,2013-02-16 00:35:00,
2013-02-15 16:40:00,56.0,40.0,30.31,SE,126,0.0,8.0,55,0.00,,,0.00,Weather View 32 v70,2013-02-16 00:40:00,
2013-02-15 16:45:00,55.9,39.9,30.31,East,87,0.0,8.0,55,0.00,,,0.00,Weather View 32 v70,2013-02-16 00:45:00,
2013-02-15 16:50:00,56.0,40.0,30.31,East,86,2.0,7.0,55,0.00,,,0.00,Weather View 32 v70,2013-02-16 00:50:00,
2013-02-15 16:55:00,55.7,40.2,30.31,East,86,0.0,6.0,56,0.00,,,0.00,Weather View 32 v70,2013-02-16 00:55:00,
2013-02-15 17:00:00,55.3,39.8,30.31,East,85,0.0,6.0,56,0.00,,,0.00,Weather View 32 v70,2013-02-16 01:00:00,
2013-02-15 17:05:00,55.0,40.0,30.30,East,84,0.0,6.0,57,0.00,,,0.00,Weather View 32 v70,2013-02-16 01:05:00,
2013-02-15 17:10:00,54.5,40.0,30.30,East,84,0.0,6.0,58,0.00,,,0.00,Weather View 32 v70,2013-02-16 01:10:00,
2013-02-15 17:15:00,54.2,39.7,30.30,East,84,0.0,6.0,58,0.00,,,0.00,Weather View 32 v70,2013-02-16 01:15:00,
2013-02-15 17:20:00,53.9,39.9,30.30,East,84,0.0,6.0,59,0.00,,,0.00,Weather View 32 v70,2013-02-16 01:20:00,
2013-02-15 17:25:00,53.6,39.6,30.30,East,84,0.0,6.0,59,0.00,,,0.00,Weather View 32 v70,2013-02-16 01:25:00,
2013-02-15 17:30:00,53.3,39.7,30.30,East,84,0.0,6.0,60,0.00,,,0.00,Weather View 32 v70,2013-02-16 01:30:00,
2013-02-15 17:35:00,52.9,39.8,30.30,East,84,0.0,6.0,61,0.00,,,0.00,Weather View 32 v70,2013-02-16 01:35:00,
2013-02-15 17:40:00,52.5,39.8,30.30,East,84,0.0,6.0,62,0.00,,,0.00,Weather View 32 v70,2013-02-16 01:40:00,
2013-02-15 17:45:00,52.2,39.5,30.29,East,84,0.0,6.0,62,0.00,,,0.00,Weather View 32 v70,2013-02-16 01:45:00,
2013-02-15 17:50:00,51.6,39.4,30.30,East,84,0.0,6.0,63,0.00,,,0.00,Weather View 32 v70,2013-02-16 01:50:00,
2013-02-15 18:00:00,51.0,39.6,30.30,East,84,0.0,5.0,65,0.00,,,0.00,Weather View 32 v70,2013-02-16 02:00:00,
2013-02-15 18:05:00,50.8,39.8,30.29,East,85,0.0,5.0,66,0.00,,,0.00,Weather View 32 v70,2013-02-16 02:05:00,
2013-02-15 18:10:00,50.7,39.7,30.30,East,85,0.0,5.0,66,0.00,,,0.00,Weather View 32 v70,2013-02-16 02:10:00,
2013-02-15 18:15:00,50.5,39.9,30.30,East,85,0.0,1.0,67,0.00,,,0.00,Weather View 32 v70,2013-02-16 02:15:00,
2013-02-15 18:20:00,50.4,39.8,30.29,East,84,0.0,1.0,67,0.00,,,0.00,Weather View 32 v70,2013-02-16 02:20:00,
2013-02-15 18:25:00,49.9,39.7,30.30,East,85,0.0,1.0,68,0.00,,,0.00,Weather View 32 v70,2013-02-16 02:25:00,
2013-02-15 18:30:00,49.5,39.7,30.29,East,85,0.0,1.0,69,0.00,,,0.00,Weather View 32 v70,2013-02-16 02:30:00,
2013-02-15 18:35:00,49.1,39.7,30.29,East,85,0.0,1.0,70,0.00,,,0.00,Weather View 32 v70,2013-02-16 02:35:00,
2013-02-15 18:40:00,48.8,39.8,30.30,East,84,0.0,1.0,71,0.00,,,0.00,Weather View 32 v70,2013-02-16 02:40:00,
2013-02-15 18:45:00,48.2,39.6,30.29,East,85,0.0,1.0,72,0.00,,,0.00,Weather View 32 v70,2013-02-16 02:45:00,
2013-02-15 18:50:00,47.7,39.5,30.29,East,85,0.0,1.0,73,0.00,,,0.00,Weather View 32 v70,2013-02-16 02:50:00,
2013-02-15 18:55:00,47.4,39.5,30.29,East,85,0.0,1.0,74,0.00,,,0.00,Weather View 32 v70,2013-02-16 02:55:00,
2013-02-15 19:00:00,47.3,39.4,30.29,East,84,0.0,1.0,74,0.00,,,0.00,Weather View 32 v70,2013-02-16 03:00:00,
2013-02-15 19:05:00,47.0,39.5,30.30,East,85,0.0,0.0,75,0.00,,,0.00,Weather View 32 v70,2013-02-16 03:05:00,
2013-02-15 19:10:00,46.8,39.3,30.30,East,85,0.0,0.0,75,0.00,,,0.00,Weather View 32 v70,2013-02-16 03:10:00,
2013-02-15 19:14:00,46.5,39.3,30.30,East,85,0.0,0.0,76,0.00,,,0.00,Weather View 32 v70,2013-02-16 03:14:00,
2013-02-15 19:19:00,46.4,39.2,30.30,East,85,0.0,0.0,76,0.00,,,0.00,Weather View 32 v70,2013-02-16 03:19:00,
2013-02-15 19:25:00,46.1,38.9,30.30,East,85,0.0,0.0,76,0.00,,,0.00,Weather View 32 v70,2013-02-16 03:25:00,
2013-02-15 19:30:00,45.8,38.7,30.30,East,84,0.0,0.0,76,0.00,,,0.00,Weather View 32 v70,2013-02-16 03:30:00,
2013-02-15 19:35:00,45.5,38.7,30.29,East,85,0.0,0.0,77,0.00,,,0.00,Weather View 32 v70,2013-02-16 03:35:00,
2013-02-15 19:40:00,44.9,38.1,30.29,East,85,0.0,0.0,77,0.00,,,0.00,Weather View 32 v70,2013-02-16 03:40:00,
2013-02-15 19:45:00,44.3,37.9,30.29,East,84,0.0,0.0,78,0.00,,,0.00,Weather View 32 v70,2013-02-16 03:45:00,
2013-02-15 19:50:00,43.9,38.1,30.29,East,84,0.0,0.0,80,0.00,,,0.00,Weather View 32 v70,2013-02-16 03:50:00,
2013-02-15 19:55:00,43.6,38.1,30.29,East,85,0.0,0.0,81,0.00,,,0.00,Weather View 32 v70,2013-02-16 03:55:00,
2013-02-15 20:00:00,43.3,37.9,30.29,East,85,0.0,0.0,81,0.00,,,0.00,Weather View 32 v70,2013-02-16 04:00:00,
2013-02-15 20:05:00,42.9,37.5,30.29,East,85,0.0,0.0,81,0.00,,,0.00,Weather View 32 v70,2013-02-16 04:05:00,
2013-02-15 20:10:00,42.5,37.4,30.29,East,85,0.0,0.0,82,0.00,,,0.00,Weather View 32 v70,2013-02-16 04:10:00,
2013-02-15 20:15:00,42.1,37.0,30.29,East,84,0.0,0.0,82,0.00,,,0.00,Weather View 32 v70,2013-02-16 04:15:00,
2013-02-15 20:20:00,41.9,37.4,30.29,East,85,0.0,0.0,84,0.00,,,0.00,Weather View 32 v70,2013-02-16 04:20:00,
2013-02-15 20:24:00,42.1,37.6,30.29,East,85,0.0,0.0,84,0.00,,,0.00,Weather View 32 v70,2013-02-16 04:24:00,
2013-02-15 20:30:00,42.3,37.8,30.29,East,85,0.0,3.0,84,0.00,,,0.00,Weather View 32 v70,2013-02-16 04:30:00,
2013-02-15 20:35:00,42.5,38.0,30.29,East,85,0.0,3.0,84,0.00,,,0.00,Weather View 32 v70,2013-02-16 04:35:00,
2013-02-15 20:40:00,42.6,38.1,30.29,East,85,0.0,3.0,84,0.00,,,0.00,Weather View 32 v70,2013-02-16 04:40:00,
2013-02-15 20:45:00,42.8,38.0,30.29,East,85,0.0,3.0,83,0.00,,,0.00,Weather View 32 v70,2013-02-16 04:45:00,
2013-02-15 20:50:00,42.9,38.1,30.29,East,85,0.0,3.0,83,0.00,,,0.00,Weather View 32 v70,2013-02-16 04:50:00,
2013-02-15 20:55:00,43.2,38.4,30.29,East,84,1.0,3.0,83,0.00,,,0.00,Weather View 32 v70,2013-02-16 04:55:00,
2013-02-15 21:00:00,43.5,38.7,30.29,East,84,0.0,3.0,83,0.00,,,0.00,Weather View 32 v70,2013-02-16 05:00:00,
2013-02-15 21:05:00,43.8,39.0,30.29,East,84,1.0,3.0,83,0.00,,,0.00,Weather View 32 v70,2013-02-16 05:05:00,
2013-02-15 21:10:00,43.9,38.8,30.29,East,85,0.0,3.0,82,0.00,,,0.00,Weather View 32 v70,2013-02-16 05:10:00,
2013-02-15 21:15:00,43.8,38.7,30.29,East,85,0.0,3.0,82,0.00,,,0.00,Weather View 32 v70,2013-02-16 05:15:00,
2013-02-15 21:20:00,43.8,38.3,30.29,East,85,0.0,3.0,81,0.00,,,0.00,Weather View 32 v70,2013-02-16 05:20:00,
2013-02-15 21:23:00,43.8,38.3,30.29,East,85,0.0,3.0,81,0.00,,,0.00,Weather View 32 v70,2013-02-16 05:23:00,
2013-02-15 21:28:00,43.5,38.0,30.29,East,85,0.0,3.0,81,0.00,,,0.00,Weather View 32 v70,2013-02-16 05:28:00,
2013-02-15 21:33:00,43.3,38.2,30.29,East,85,0.0,3.0,82,0.00,,,0.00,Weather View 32 v70,2013-02-16 05:33:00,
2013-02-15 21:38:00,43.3,38.2,30.29,East,85,0.0,3.0,82,0.00,,,0.00,Weather View 32 v70,2013-02-16 05:38:00,
2013-02-15 21:43:00,43.2,38.1,30.29,East,85,0.0,3.0,82,0.00,,,0.00,Weather View 32 v70,2013-02-16 05:43:00,
2013-02-15 21:48:00,43.1,38.0,30.29,East,85,0.0,3.0,82,0.00,,,0.00,Weather View 32 v70,2013-02-16 05:48:00,
2013-02-15 21:53:00,42.8,37.7,30.29,East,85,0.0,3.0,82,0.00,,,0.00,Weather View 32 v70,2013-02-16 05:53:00,
2013-02-15 21:58:00,42.6,37.5,30.29,East,85,0.0,3.0,82,0.00,,,0.00,Weather View 32 v70,2013-02-16 05:58:00,
2013-02-15 22:03:00,42.2,37.1,30.29,East,85,0.0,3.0,82,0.00,,,0.00,Weather View 32 v70,2013-02-16 06:03:00,
2013-02-15 22:08:00,41.9,37.1,30.29,East,85,0.0,3.0,83,0.00,,,0.00,Weather View 32 v70,2013-02-16 06:08:00,
2013-02-15 22:13:00,41.8,37.3,30.29,East,85,0.0,2.0,84,0.00,,,0.00,Weather View 32 v70,2013-02-16 06:13:00,
2013-02-15 22:17:00,41.6,37.1,30.29,East,85,0.0,1.0,84,0.00,,,0.00,Weather View 32 v70,2013-02-16 06:17:00,
2013-02-15 22:22:00,41.5,37.0,30.29,East,85,0.0,1.0,84,0.00,,,0.00,Weather View 32 v70,2013-02-16 06:22:00,
2013-02-15 22:27:00,41.3,36.8,30.29,East,85,0.0,0.0,84,0.00,,,0.00,Weather View 32 v70,2013-02-16 06:27:00,
2013-02-15 22:32:00,41.1,36.6,30.29,East,85,0.0,0.0,84,0.00,,,0.00,Weather View 32 v70,2013-02-16 06:32:00,
2013-02-15 22:37:00,40.8,36.3,30.29,East,85,0.0,0.0,84,0.00,,,0.00,Weather View 32 v70,2013-02-16 06:37:00,
2013-02-15 22:43:00,40.5,36.0,30.29,East,85,0.0,0.0,84,0.00,,,0.00,Weather View 32 v70,2013-02-16 06:43:00,
2013-02-15 22:48:00,40.1,35.7,30.29,East,85,0.0,0.0,84,0.00,,,0.00,Weather View 32 v70,2013-02-16 06:48:00,
2013-02-15 22:53:00,39.6,35.5,30.29,East,85,0.0,0.0,85,0.00,,,0.00,Weather View 32 v70,2013-02-16 06:53:00,
2013-02-15 22:58:00,39.6,35.8,30.29,East,85,0.0,0.0,86,0.00,,,0.00,Weather View 32 v70,2013-02-16 06:58:00,
2013-02-15 23:03:00,39.6,35.8,30.29,East,85,0.0,0.0,86,0.00,,,0.00,Weather View 32 v70,2013-02-16 07:03:00,
2013-02-15 23:08:00,39.6,35.8,30.28,East,85,0.0,0.0,86,0.00,,,0.00,Weather View 32 v70,2013-02-16 07:08:00,
2013-02-15 23:12:00,39.3,35.5,30.28,East,85,0.0,0.0,86,0.00,,,0.00,Weather View 32 v70,2013-02-16 07:12:00,
2013-02-15 23:17:00,39.1,35.0,30.28,East,85,0.0,0.0,85,0.00,,,0.00,Weather View 32 v70,2013-02-16 07:17:00,
2013-02-15 23:22:00,38.8,35.0,30.28,East,85,0.0,0.0,86,0.00,,,0.00,Weather View 32 v70,2013-02-16 07:22:00,
2013-02-15 23:27:00,38.6,34.8,30.28,East,85,0.0,0.0,86,0.00,,,0.00,Weather View 32 v70,2013-02-16 07:27:00,
2013-02-15 23:32:00,38.3,34.5,30.28,East,85,0.0,0.0,86,0.00,,,0.00,Weather View 32 v70,2013-02-16 07:32:00,
2013-02-15 23:37:00,38.0,34.2,30.28,East,85,0.0,0.0,86,0.00,,,0.00,Weather View 32 v70,2013-02-16 07:37:00,
2013-02-15 23:42:00,37.8,34.0,30.28,East,85,0.0,0.0,86,0.00,,,0.00,Weather View 32 v70,2013-02-16 07:42:00,
2013-02-15 23:47:00,37.6,34.1,30.28,East,85,0.0,0.0,87,0.00,,,0.00,Weather View 32 v70,2013-02-16 07:47:00,
2013-02-15 23:52:00,37.2,33.7,30.28,East,85,0.0,0.0,87,0.00,,,0.00,Weather View 32 v70,2013-02-16 07:52:00,
2013-02-15 23:57:00,36.9,33.4,30.28,East,85,0.0,0.0,87,0.00,,,0.00,Weather View 32 v70,2013-02-16 07:57:00,